Year,Month,Day,Hour,Minute,Value (Times are PST for temperature in C)
2014,10,05,00,00,12.90
2014,10,05,00,01,13.00
2014,10,05,00,02,13.00
2014,10,05,00,03,13.00
2014,10,05,00,04,13.00
2014,10,05,00,05,13.00
2014,10,05,00,06,13.00
2014,10,05,00,07,13.00
2014,10,05,00,08,13.00
2014,10,05,00,09,13.00
2014,10,05,00,10,13.00
2014,10,05,00,11,13.00
2014,10,05,00,12,13.00
2014,10,05,00,13,13.00
2014,10,05,00,14,13.00
2014,10,05,00,15,12.90
2014,10,05,00,16,12.90
2014,10,05,00,17,12.90
2014,10,05,00,18,12.80
2014,10,05,00,19,12.80
2014,10,05,00,20,12.80
2014,10,05,00,21,12.80
2014,10,05,00,22,12.80
2014,10,05,00,23,12.80
2014,10,05,00,24,12.80
2014,10,05,00,25,12.80
2014,10,05,00,26,12.80
2014,10,05,00,27,12.80
2014,10,05,00,28,12.80
2014,10,05,00,29,12.80
2014,10,05,00,30,12.80
2014,10,05,00,31,12.80
2014,10,05,00,32,12.80
2014,10,05,00,33,12.80
2014,10,05,00,34,12.80
2014,10,05,00,35,12.90
2014,10,05,00,36,12.90
2014,10,05,00,37,13.00
2014,10,05,00,38,13.00
2014,10,05,00,39,13.00
2014,10,05,00,40,13.10
2014,10,05,00,41,13.10
2014,10,05,00,42,13.10
2014,10,05,00,43,13.10
2014,10,05,00,44,13.10
2014,10,05,00,45,13.10
2014,10,05,00,46,13.10
2014,10,05,00,47,13.10
2014,10,05,00,48,13.20
2014,10,05,00,49,13.20
2014,10,05,00,50,13.20
2014,10,05,00,51,13.20
2014,10,05,00,52,13.20
2014,10,05,00,53,13.20
2014,10,05,00,54,13.20
2014,10,05,00,55,13.30
2014,10,05,00,56,13.30
2014,10,05,00,57,13.30
2014,10,05,00,58,13.30
2014,10,05,00,59,13.30
2014,10,05,01,00,13.30
2014,10,05,01,01,13.30
2014,10,05,01,02,13.30
2014,10,05,01,03,13.30
2014,10,05,01,04,13.30
2014,10,05,01,05,13.30
2014,10,05,01,06,13.30
2014,10,05,01,07,13.30
2014,10,05,01,08,13.30
2014,10,05,01,09,13.30
2014,10,05,01,10,13.30
2014,10,05,01,11,13.30
2014,10,05,01,12,13.30
2014,10,05,01,13,13.30
2014,10,05,01,14,13.30
2014,10,05,01,15,13.30
2014,10,05,01,16,13.30
2014,10,05,01,17,13.30
2014,10,05,01,18,13.30
2014,10,05,01,19,13.30
2014,10,05,01,20,13.30
2014,10,05,01,21,13.40
2014,10,05,01,22,13.40
2014,10,05,01,23,13.40
2014,10,05,01,24,13.40
2014,10,05,01,25,13.40
2014,10,05,01,26,13.40
2014,10,05,01,27,13.50
2014,10,05,01,28,13.50
2014,10,05,01,29,13.50
2014,10,05,01,30,13.60
2014,10,05,01,31,13.60
2014,10,05,01,32,13.60
2014,10,05,01,33,13.60
2014,10,05,01,34,13.70
2014,10,05,01,35,13.70
2014,10,05,01,36,13.70
2014,10,05,01,37,13.80
2014,10,05,01,38,13.80
2014,10,05,01,39,13.90
2014,10,05,01,40,13.90
2014,10,05,01,41,14.00
2014,10,05,01,42,14.00
2014,10,05,01,43,14.10
2014,10,05,01,44,14.10
2014,10,05,01,45,14.20
2014,10,05,01,46,14.20
2014,10,05,01,47,14.20
2014,10,05,01,48,14.20
2014,10,05,01,49,14.20
2014,10,05,01,50,14.20
2014,10,05,01,51,14.20
2014,10,05,01,52,14.20
2014,10,05,01,53,14.30
2014,10,05,01,54,14.30
2014,10,05,01,55,14.30
2014,10,05,01,56,14.30
2014,10,05,01,57,14.30
2014,10,05,01,58,14.30
2014,10,05,01,59,14.30
2014,10,05,02,00,14.30
2014,10,05,02,01,14.30
2014,10,05,02,02,14.40
2014,10,05,02,03,14.40
2014,10,05,02,04,14.40
2014,10,05,02,05,14.40
2014,10,05,02,06,14.40
2014,10,05,02,07,14.40
2014,10,05,02,08,14.40
2014,10,05,02,09,14.50
2014,10,05,02,10,14.50
2014,10,05,02,11,14.50
2014,10,05,02,12,14.50
2014,10,05,02,13,14.50
2014,10,05,02,14,14.50
2014,10,05,02,15,14.50
2014,10,05,02,16,14.50
2014,10,05,02,17,14.50
2014,10,05,02,18,14.50
2014,10,05,02,19,14.50
2014,10,05,02,20,14.50
2014,10,05,02,21,14.50
2014,10,05,02,22,14.50
2014,10,05,02,23,14.60
2014,10,05,02,24,14.60
2014,10,05,02,25,14.60
2014,10,05,02,26,14.60
2014,10,05,02,27,14.60
2014,10,05,02,28,14.60
2014,10,05,02,29,14.70
2014,10,05,02,30,14.70
2014,10,05,02,31,14.70
2014,10,05,02,32,14.70
2014,10,05,02,33,14.70
2014,10,05,02,34,14.70
2014,10,05,02,35,14.70
2014,10,05,02,36,14.80
2014,10,05,02,37,14.80
2014,10,05,02,38,14.80
2014,10,05,02,39,14.80
2014,10,05,02,40,14.80
2014,10,05,02,41,14.80
2014,10,05,02,42,14.80
2014,10,05,02,43,14.80
2014,10,05,02,44,14.80
2014,10,05,02,45,14.80
2014,10,05,02,46,14.90
2014,10,05,02,47,14.90
2014,10,05,02,48,14.90
2014,10,05,02,49,14.90
2014,10,05,02,50,14.90
2014,10,05,02,51,14.90
2014,10,05,02,52,14.90
2014,10,05,02,53,14.90
2014,10,05,02,54,14.90
2014,10,05,02,55,14.90
2014,10,05,02,56,14.90
2014,10,05,02,57,14.90
2014,10,05,02,58,14.90
2014,10,05,02,59,14.80
2014,10,05,03,00,14.80
2014,10,05,03,01,14.80
2014,10,05,03,02,14.70
2014,10,05,03,03,14.60
2014,10,05,03,04,14.60
2014,10,05,03,05,14.60
2014,10,05,03,06,14.60
2014,10,05,03,07,14.60
2014,10,05,03,08,14.60
2014,10,05,03,09,14.50
2014,10,05,03,10,14.50
2014,10,05,03,11,14.50
2014,10,05,03,12,14.40
2014,10,05,03,13,14.40
2014,10,05,03,14,14.40
2014,10,05,03,15,14.30
2014,10,05,03,16,14.30
2014,10,05,03,17,14.30
2014,10,05,03,18,14.20
2014,10,05,03,19,14.20
2014,10,05,03,20,14.20
2014,10,05,03,21,14.10
2014,10,05,03,22,14.00
2014,10,05,03,23,13.90
2014,10,05,03,24,13.90
2014,10,05,03,25,13.80
2014,10,05,03,26,13.70
2014,10,05,03,27,13.70
2014,10,05,03,28,13.60
2014,10,05,03,29,13.60
2014,10,05,03,30,13.50
2014,10,05,03,31,13.50
2014,10,05,03,32,13.40
2014,10,05,03,33,13.40
2014,10,05,03,34,13.30
2014,10,05,03,35,13.30
2014,10,05,03,36,13.30
2014,10,05,03,37,13.30
2014,10,05,03,38,13.30
2014,10,05,03,39,13.30
2014,10,05,03,40,13.30
2014,10,05,03,41,13.30
2014,10,05,03,42,13.30
2014,10,05,03,43,13.30
2014,10,05,03,44,13.30
2014,10,05,03,45,13.30
2014,10,05,03,46,13.20
2014,10,05,03,47,13.20
2014,10,05,03,48,13.20
2014,10,05,03,49,13.20
2014,10,05,03,50,13.20
2014,10,05,03,51,13.10
2014,10,05,03,52,13.10
2014,10,05,03,53,13.10
2014,10,05,03,54,13.10
2014,10,05,03,55,13.10
2014,10,05,03,56,13.10
2014,10,05,03,57,13.00
2014,10,05,03,58,13.00
2014,10,05,03,59,13.00
2014,10,05,04,00,13.00
2014,10,05,04,01,13.00
2014,10,05,04,02,12.90
2014,10,05,04,03,12.90
2014,10,05,04,04,12.90
2014,10,05,04,05,12.80
2014,10,05,04,06,12.80
2014,10,05,04,07,12.80
2014,10,05,04,08,12.80
2014,10,05,04,09,12.80
2014,10,05,04,10,12.80
2014,10,05,04,11,12.80
2014,10,05,04,12,12.70
2014,10,05,04,13,12.70
2014,10,05,04,14,12.70
2014,10,05,04,15,12.70
2014,10,05,04,16,12.60
2014,10,05,04,17,12.60
2014,10,05,04,18,12.60
2014,10,05,04,19,12.60
2014,10,05,04,20,12.60
2014,10,05,04,21,12.60
2014,10,05,04,22,12.60
2014,10,05,04,23,12.60
2014,10,05,04,24,12.60
2014,10,05,04,25,12.60
2014,10,05,04,26,12.60
2014,10,05,04,27,12.60
2014,10,05,04,28,12.60
2014,10,05,04,29,12.60
2014,10,05,04,30,12.60
2014,10,05,04,31,12.60
2014,10,05,04,32,12.60
2014,10,05,04,33,12.60
2014,10,05,04,34,12.60
2014,10,05,04,35,12.60
2014,10,05,04,36,12.70
2014,10,05,04,37,12.70
2014,10,05,04,38,12.70
2014,10,05,04,39,12.70
2014,10,05,04,40,12.70
2014,10,05,04,41,12.70
2014,10,05,04,42,12.70
2014,10,05,04,43,12.80
2014,10,05,04,44,12.80
2014,10,05,04,45,12.80
2014,10,05,04,46,12.80
2014,10,05,04,47,12.80
2014,10,05,04,48,12.80
2014,10,05,04,49,12.80
2014,10,05,04,50,12.80
2014,10,05,04,51,12.80
2014,10,05,04,52,12.80
2014,10,05,04,53,12.90
2014,10,05,04,54,12.90
2014,10,05,04,55,12.90
2014,10,05,04,56,12.90
2014,10,05,04,57,12.90
2014,10,05,04,58,12.90
2014,10,05,04,59,12.90
2014,10,05,05,00,12.90
2014,10,05,05,01,12.90
2014,10,05,05,02,12.90
2014,10,05,05,03,12.90
2014,10,05,05,04,12.90
2014,10,05,05,05,12.90
2014,10,05,05,06,12.80
2014,10,05,05,07,12.80
2014,10,05,05,08,12.80
2014,10,05,05,09,12.80
2014,10,05,05,10,12.80
2014,10,05,05,11,12.80
2014,10,05,05,12,12.80
2014,10,05,05,13,12.80
2014,10,05,05,14,12.80
2014,10,05,05,15,12.80
2014,10,05,05,16,12.80
2014,10,05,05,17,12.80
2014,10,05,05,18,12.80
2014,10,05,05,19,12.80
2014,10,05,05,20,12.80
2014,10,05,05,21,12.80
2014,10,05,05,22,12.80
2014,10,05,05,23,12.80
2014,10,05,05,24,12.80
2014,10,05,05,25,12.80
2014,10,05,05,26,12.80
2014,10,05,05,27,12.80
2014,10,05,05,28,12.80
2014,10,05,05,29,12.80
2014,10,05,05,30,12.80
2014,10,05,05,31,12.80
2014,10,05,05,32,12.80
2014,10,05,05,33,12.80
2014,10,05,05,34,12.80
2014,10,05,05,35,12.80
2014,10,05,05,36,12.80
2014,10,05,05,37,12.80
2014,10,05,05,38,12.80
2014,10,05,05,39,12.80
2014,10,05,05,40,12.80
2014,10,05,05,41,12.80
2014,10,05,05,42,12.80
2014,10,05,05,43,12.80
2014,10,05,05,44,12.80
2014,10,05,05,45,12.80
2014,10,05,05,46,12.90
2014,10,05,05,47,12.90
2014,10,05,05,48,12.90
2014,10,05,05,49,12.90
2014,10,05,05,50,12.90
2014,10,05,05,51,12.90
2014,10,05,05,52,12.90
2014,10,05,05,53,12.90
2014,10,05,05,54,12.90
2014,10,05,05,55,12.90
2014,10,05,05,56,12.90
2014,10,05,05,57,12.90
2014,10,05,05,58,12.90
2014,10,05,05,59,12.90
2014,10,05,06,00,12.90
2014,10,05,06,01,12.90
2014,10,05,06,02,12.90
2014,10,05,06,03,12.80
2014,10,05,06,04,12.80
2014,10,05,06,05,12.80
2014,10,05,06,06,12.80
2014,10,05,06,07,12.80
2014,10,05,06,08,12.80
2014,10,05,06,09,12.80
2014,10,05,06,10,12.80
2014,10,05,06,11,12.80
2014,10,05,06,12,12.80
2014,10,05,06,13,12.80
2014,10,05,06,14,12.80
2014,10,05,06,15,12.80
2014,10,05,06,16,12.80
2014,10,05,06,17,12.80
2014,10,05,06,18,12.80
2014,10,05,06,19,12.80
2014,10,05,06,20,12.80
2014,10,05,06,21,12.80
2014,10,05,06,22,12.80
2014,10,05,06,23,12.80
2014,10,05,06,24,12.80
2014,10,05,06,25,12.80
2014,10,05,06,26,12.80
2014,10,05,06,27,12.80
2014,10,05,06,28,12.80
2014,10,05,06,29,12.80
2014,10,05,06,30,12.80
2014,10,05,06,31,12.80
2014,10,05,06,32,12.80
2014,10,05,06,33,12.80
2014,10,05,06,34,12.80
2014,10,05,06,35,12.80
2014,10,05,06,36,12.80
2014,10,05,06,37,12.80
2014,10,05,06,38,12.80
2014,10,05,06,39,12.80
2014,10,05,06,40,12.80
2014,10,05,06,41,12.80
2014,10,05,06,42,12.80
2014,10,05,06,43,12.80
2014,10,05,06,44,12.80
2014,10,05,06,45,12.80
2014,10,05,06,46,12.80
2014,10,05,06,47,12.80
2014,10,05,06,48,12.80
2014,10,05,06,49,12.80
2014,10,05,06,50,12.80
2014,10,05,06,51,12.80
2014,10,05,06,52,12.80
2014,10,05,06,53,12.80
2014,10,05,06,54,12.80
2014,10,05,06,55,12.80
2014,10,05,06,56,12.80
2014,10,05,06,57,12.80
2014,10,05,06,58,12.80
2014,10,05,06,59,12.80
2014,10,05,07,00,12.80
2014,10,05,07,01,12.80
2014,10,05,07,02,12.90
2014,10,05,07,03,12.90
2014,10,05,07,04,12.90
2014,10,05,07,05,12.90
2014,10,05,07,06,12.90
2014,10,05,07,07,12.90
2014,10,05,07,08,12.80
2014,10,05,07,09,12.80
2014,10,05,07,10,12.80
2014,10,05,07,11,12.80
2014,10,05,07,12,12.80
2014,10,05,07,13,12.80
2014,10,05,07,14,12.80
2014,10,05,07,15,12.80
2014,10,05,07,16,12.80
2014,10,05,07,17,12.80
2014,10,05,07,18,12.80
2014,10,05,07,19,12.80
2014,10,05,07,20,12.80
2014,10,05,07,21,12.70
2014,10,05,07,22,12.70
2014,10,05,07,23,12.70
2014,10,05,07,24,12.70
2014,10,05,07,25,12.70
2014,10,05,07,26,12.70
2014,10,05,07,27,12.70
2014,10,05,07,28,12.70
2014,10,05,07,29,12.70
2014,10,05,07,30,12.70
2014,10,05,07,31,12.70
2014,10,05,07,32,12.70
2014,10,05,07,33,12.70
2014,10,05,07,34,12.70
2014,10,05,07,35,12.80
2014,10,05,07,36,12.80
2014,10,05,07,37,12.80
2014,10,05,07,38,12.80
2014,10,05,07,39,12.80
2014,10,05,07,40,12.80
2014,10,05,07,41,12.80
2014,10,05,07,42,12.80
2014,10,05,07,43,12.80
2014,10,05,07,44,12.80
2014,10,05,07,45,12.80
2014,10,05,07,46,12.80
2014,10,05,07,47,12.80
2014,10,05,07,48,12.80
2014,10,05,07,49,12.80
2014,10,05,07,50,12.80
2014,10,05,07,51,12.80
2014,10,05,07,52,12.90
2014,10,05,07,53,12.90
2014,10,05,07,54,12.90
2014,10,05,07,55,12.90
2014,10,05,07,56,13.00
2014,10,05,07,57,13.00
2014,10,05,07,58,13.00
2014,10,05,07,59,13.10
2014,10,05,08,00,13.10
2014,10,05,08,01,13.20
2014,10,05,08,02,13.20
2014,10,05,08,03,13.30
2014,10,05,08,04,13.30
2014,10,05,08,05,13.30
2014,10,05,08,06,13.30
2014,10,05,08,07,13.30
2014,10,05,08,08,13.30
2014,10,05,08,09,13.30
2014,10,05,08,10,13.30
2014,10,05,08,11,13.30
2014,10,05,08,12,13.30
2014,10,05,08,13,13.30
2014,10,05,08,14,13.30
2014,10,05,08,15,13.30
2014,10,05,08,16,13.30
2014,10,05,08,17,13.30
2014,10,05,08,18,13.30
2014,10,05,08,19,13.30
2014,10,05,08,20,13.30
2014,10,05,08,21,13.30
2014,10,05,08,22,13.30
2014,10,05,08,23,13.30
2014,10,05,08,24,13.30
2014,10,05,08,25,13.30
2014,10,05,08,26,13.40
2014,10,05,08,27,13.40
2014,10,05,08,28,13.40
2014,10,05,08,29,13.40
2014,10,05,08,30,13.40
2014,10,05,08,31,13.40
2014,10,05,08,32,13.40
2014,10,05,08,33,13.50
2014,10,05,08,34,13.50
2014,10,05,08,35,13.50
2014,10,05,08,36,13.50
2014,10,05,08,37,13.50
2014,10,05,08,38,13.50
2014,10,05,08,39,13.60
2014,10,05,08,40,13.60
2014,10,05,08,41,13.60
2014,10,05,08,42,13.60
2014,10,05,08,43,13.70
2014,10,05,08,44,13.70
2014,10,05,08,45,13.70
2014,10,05,08,46,13.70
2014,10,05,08,47,13.70
2014,10,05,08,48,13.80
2014,10,05,08,49,13.80
2014,10,05,08,50,13.90
2014,10,05,08,51,13.90
2014,10,05,08,52,13.90
2014,10,05,08,53,14.00
2014,10,05,08,54,14.00
2014,10,05,08,55,14.00
2014,10,05,08,56,14.10
2014,10,05,08,57,14.10
2014,10,05,08,58,14.20
2014,10,05,08,59,14.20
2014,10,05,09,00,14.20
2014,10,05,09,01,14.20
2014,10,05,09,02,14.20
2014,10,05,09,03,14.30
2014,10,05,09,04,14.30
2014,10,05,09,05,14.40
2014,10,05,09,06,14.40
2014,10,05,09,07,14.40
2014,10,05,09,08,14.40
2014,10,05,09,09,14.50
2014,10,05,09,10,14.50
2014,10,05,09,11,14.60
2014,10,05,09,12,14.60
2014,10,05,09,13,14.60
2014,10,05,09,14,14.60
2014,10,05,09,15,14.70
2014,10,05,09,16,14.70
2014,10,05,09,17,14.70
2014,10,05,09,18,14.70
2014,10,05,09,19,14.80
2014,10,05,09,20,14.80
2014,10,05,09,21,14.80
2014,10,05,09,22,14.80
2014,10,05,09,23,14.80
2014,10,05,09,24,14.80
2014,10,05,09,25,14.90
2014,10,05,09,26,14.90
2014,10,05,09,27,14.90
2014,10,05,09,28,15.00
2014,10,05,09,29,15.00
2014,10,05,09,30,15.10
2014,10,05,09,31,15.10
2014,10,05,09,32,15.10
2014,10,05,09,33,15.20
2014,10,05,09,34,15.20
2014,10,05,09,35,15.20
2014,10,05,09,36,15.30
2014,10,05,09,37,15.30
2014,10,05,09,38,15.30
2014,10,05,09,39,15.40
2014,10,05,09,40,15.40
2014,10,05,09,41,15.40
2014,10,05,09,42,15.50
2014,10,05,09,43,15.50
2014,10,05,09,44,15.60
2014,10,05,09,45,15.60
2014,10,05,09,46,15.60
2014,10,05,09,47,15.70
2014,10,05,09,48,15.80
2014,10,05,09,49,15.80
2014,10,05,09,50,15.80
2014,10,05,09,51,15.80
2014,10,05,09,52,15.90
2014,10,05,09,53,16.00
2014,10,05,09,54,16.10
2014,10,05,09,55,16.10
2014,10,05,09,56,16.10
2014,10,05,09,57,16.10
2014,10,05,09,58,16.20
2014,10,05,09,59,16.30
2014,10,05,10,00,16.30
2014,10,05,10,01,16.40
2014,10,05,10,02,16.40
2014,10,05,10,03,16.40
2014,10,05,10,04,16.60
2014,10,05,10,05,16.60
2014,10,05,10,06,16.70
2014,10,05,10,07,16.70
2014,10,05,10,08,16.70
2014,10,05,10,09,16.80
2014,10,05,10,10,16.80
2014,10,05,10,11,16.90
2014,10,05,10,12,17.00
2014,10,05,10,13,17.00
2014,10,05,10,14,17.00
2014,10,05,10,15,17.10
2014,10,05,10,16,17.10
2014,10,05,10,17,17.20
2014,10,05,10,18,17.20
2014,10,05,10,19,17.30
2014,10,05,10,20,17.30
2014,10,05,10,21,17.30
2014,10,05,10,22,17.30
2014,10,05,10,23,17.30
2014,10,05,10,24,17.10
2014,10,05,10,25,16.80
2014,10,05,10,26,16.60
2014,10,05,10,27,16.40
2014,10,05,10,28,16.20
2014,10,05,10,29,16.10
2014,10,05,10,30,16.10
2014,10,05,10,31,16.00
2014,10,05,10,32,15.90
2014,10,05,10,33,15.80
2014,10,05,10,34,15.60
2014,10,05,10,35,15.50
2014,10,05,10,36,15.30
2014,10,05,10,37,15.10
2014,10,05,10,38,15.00
2014,10,05,10,39,15.00
2014,10,05,10,40,14.90
2014,10,05,10,41,14.90
2014,10,05,10,42,14.90
2014,10,05,10,43,14.80
2014,10,05,10,44,14.80
2014,10,05,10,45,14.80
2014,10,05,10,46,14.80
2014,10,05,10,47,14.80
2014,10,05,10,48,14.90
2014,10,05,10,49,15.00
2014,10,05,10,50,15.00
2014,10,05,10,51,15.10
2014,10,05,10,52,15.10
2014,10,05,10,53,15.00
2014,10,05,10,54,14.90
2014,10,05,10,55,14.90
2014,10,05,10,56,14.90
2014,10,05,10,57,14.90
2014,10,05,10,58,14.90
2014,10,05,10,59,14.80
2014,10,05,11,00,14.70
2014,10,05,11,01,14.70
2014,10,05,11,02,14.60
2014,10,05,11,03,14.50
2014,10,05,11,04,14.40
2014,10,05,11,05,14.40
2014,10,05,11,06,14.40
2014,10,05,11,07,14.30
2014,10,05,11,08,14.20
2014,10,05,11,09,14.20
2014,10,05,11,10,14.20
2014,10,05,11,11,14.20
2014,10,05,11,12,14.20
2014,10,05,11,13,14.20
2014,10,05,11,14,14.20
2014,10,05,11,15,14.20
2014,10,05,11,16,14.30
2014,10,05,11,17,14.40
2014,10,05,11,18,14.40
2014,10,05,11,19,14.50
2014,10,05,11,20,14.50
2014,10,05,11,21,14.60
2014,10,05,11,22,14.60
2014,10,05,11,23,14.70
2014,10,05,11,24,14.70
2014,10,05,11,25,14.70
2014,10,05,11,26,14.80
2014,10,05,11,27,14.80
2014,10,05,11,28,14.80
2014,10,05,11,29,14.90
2014,10,05,11,30,14.90
2014,10,05,11,31,14.90
2014,10,05,11,32,14.90
2014,10,05,11,33,14.90
2014,10,05,11,34,14.90
2014,10,05,11,35,14.80
2014,10,05,11,36,14.80
2014,10,05,11,37,14.80
2014,10,05,11,38,14.80
2014,10,05,11,39,14.80
2014,10,05,11,40,14.80
2014,10,05,11,41,14.80
2014,10,05,11,42,14.80
2014,10,05,11,43,14.80
2014,10,05,11,44,14.70
2014,10,05,11,45,14.70
2014,10,05,11,46,14.60
2014,10,05,11,47,14.60
2014,10,05,11,48,14.60
2014,10,05,11,49,14.70
2014,10,05,11,50,14.60
2014,10,05,11,51,14.60
2014,10,05,11,52,14.70
2014,10,05,11,53,14.70
2014,10,05,11,54,14.80
2014,10,05,11,55,14.80
2014,10,05,11,56,14.80
2014,10,05,11,57,14.80
2014,10,05,11,58,14.80
2014,10,05,11,59,14.90
2014,10,05,12,00,14.90
2014,10,05,12,01,15.00
2014,10,05,12,02,15.00
2014,10,05,12,03,15.10
2014,10,05,12,04,15.20
2014,10,05,12,05,15.30
2014,10,05,12,06,15.30
2014,10,05,12,07,15.30
2014,10,05,12,08,15.30
2014,10,05,12,09,15.40
2014,10,05,12,10,15.40
2014,10,05,12,11,15.30
2014,10,05,12,12,15.30
2014,10,05,12,13,15.40
2014,10,05,12,14,15.40
2014,10,05,12,15,15.40
2014,10,05,12,16,15.30
2014,10,05,12,17,15.30
2014,10,05,12,18,15.20
2014,10,05,12,19,15.10
2014,10,05,12,20,15.00
2014,10,05,12,21,14.90
2014,10,05,12,22,14.90
2014,10,05,12,23,14.90
2014,10,05,12,24,14.90
2014,10,05,12,25,14.90
2014,10,05,12,26,14.90
2014,10,05,12,27,14.90
2014,10,05,12,28,14.90
2014,10,05,12,29,14.90
2014,10,05,12,30,14.80
2014,10,05,12,31,14.90
2014,10,05,12,32,15.00
2014,10,05,12,33,15.10
2014,10,05,12,34,15.10
2014,10,05,12,35,15.00
2014,10,05,12,36,15.00
2014,10,05,12,37,14.90
2014,10,05,12,38,14.90
2014,10,05,12,39,15.00
2014,10,05,12,40,15.00
2014,10,05,12,41,15.00
2014,10,05,12,42,15.00
2014,10,05,12,43,15.00
2014,10,05,12,44,15.00
2014,10,05,12,45,15.10
2014,10,05,12,46,15.10
2014,10,05,12,47,15.00
2014,10,05,12,48,15.00
2014,10,05,12,49,15.00
2014,10,05,12,50,15.10
2014,10,05,12,51,15.20
2014,10,05,12,52,15.20
2014,10,05,12,53,15.20
2014,10,05,12,54,15.30
2014,10,05,12,55,15.30
2014,10,05,12,56,15.30
2014,10,05,12,57,15.30
2014,10,05,12,58,15.30
2014,10,05,12,59,15.30
2014,10,05,13,00,15.30
2014,10,05,13,01,15.30
2014,10,05,13,02,15.20
2014,10,05,13,03,15.20
2014,10,05,13,04,15.20
2014,10,05,13,05,15.20
2014,10,05,13,06,15.10
2014,10,05,13,07,15.10
2014,10,05,13,08,15.20
2014,10,05,13,09,15.20
2014,10,05,13,10,15.30
2014,10,05,13,11,15.30
2014,10,05,13,12,15.40
2014,10,05,13,13,15.50
2014,10,05,13,14,15.60
2014,10,05,13,15,15.60
2014,10,05,13,16,15.70
2014,10,05,13,17,15.70
2014,10,05,13,18,15.70
2014,10,05,13,19,15.70
2014,10,05,13,20,15.70
2014,10,05,13,21,15.70
2014,10,05,13,22,15.70
2014,10,05,13,23,15.70
2014,10,05,13,24,15.80
2014,10,05,13,25,15.80
2014,10,05,13,26,15.90
2014,10,05,13,27,16.10
2014,10,05,13,28,16.20
2014,10,05,13,29,16.40
2014,10,05,13,30,16.50
2014,10,05,13,31,16.60
2014,10,05,13,32,16.60
2014,10,05,13,33,16.70
2014,10,05,13,34,16.80
2014,10,05,13,35,17.00
2014,10,05,13,36,17.10
2014,10,05,13,37,17.30
2014,10,05,13,38,17.50
2014,10,05,13,39,17.50
2014,10,05,13,40,17.70
2014,10,05,13,41,17.80
2014,10,05,13,42,17.90
2014,10,05,13,43,17.90
2014,10,05,13,44,17.90
2014,10,05,13,45,17.90
2014,10,05,13,46,17.90
2014,10,05,13,47,17.90
2014,10,05,13,48,17.90
2014,10,05,13,49,17.90
2014,10,05,13,50,17.90
2014,10,05,13,51,17.90
2014,10,05,13,52,18.00
2014,10,05,13,53,18.10
2014,10,05,13,54,18.20
2014,10,05,13,55,18.20
2014,10,05,13,56,18.30
2014,10,05,13,57,18.30
2014,10,05,13,58,18.30
2014,10,05,13,59,18.30
2014,10,05,14,00,18.30
2014,10,05,14,01,18.20
2014,10,05,14,02,18.00
2014,10,05,14,03,17.70
2014,10,05,14,04,17.30
2014,10,05,14,05,16.90
2014,10,05,14,06,16.60
2014,10,05,14,07,16.30
2014,10,05,14,08,16.10
2014,10,05,14,09,15.80
2014,10,05,14,10,15.60
2014,10,05,14,11,15.60
2014,10,05,14,12,15.50
2014,10,05,14,13,15.40
2014,10,05,14,14,15.30
2014,10,05,14,15,15.30
2014,10,05,14,16,15.30
2014,10,05,14,17,15.30
2014,10,05,14,18,15.20
2014,10,05,14,19,15.10
2014,10,05,14,20,15.10
2014,10,05,14,21,15.20
2014,10,05,14,22,15.20
2014,10,05,14,23,15.30
2014,10,05,14,24,15.30
2014,10,05,14,25,15.20
2014,10,05,14,26,15.20
2014,10,05,14,27,15.20
2014,10,05,14,28,15.20
2014,10,05,14,29,15.20
2014,10,05,14,30,15.10
2014,10,05,14,31,15.10
2014,10,05,14,32,15.10
2014,10,05,14,33,15.10
2014,10,05,14,34,15.10
2014,10,05,14,35,15.10
2014,10,05,14,36,15.10
2014,10,05,14,37,15.10
2014,10,05,14,38,15.20
2014,10,05,14,39,15.20
2014,10,05,14,40,15.30
2014,10,05,14,41,15.30
2014,10,05,14,42,15.30
2014,10,05,14,43,15.40
2014,10,05,14,44,15.40
2014,10,05,14,45,15.50
2014,10,05,14,46,15.60
2014,10,05,14,47,15.60
2014,10,05,14,48,15.60
2014,10,05,14,49,15.50
2014,10,05,14,50,15.60
2014,10,05,14,51,15.50
2014,10,05,14,52,15.50
2014,10,05,14,53,15.60
2014,10,05,14,54,15.60
2014,10,05,14,55,15.60
2014,10,05,14,56,15.50
2014,10,05,14,57,15.50
2014,10,05,14,58,15.40
2014,10,05,14,59,15.30
2014,10,05,15,00,15.30
2014,10,05,15,01,15.20
2014,10,05,15,02,15.10
2014,10,05,15,03,15.00
2014,10,05,15,04,15.00
2014,10,05,15,05,15.00
2014,10,05,15,06,15.00
2014,10,05,15,07,15.10
2014,10,05,15,08,15.10
2014,10,05,15,09,15.10
2014,10,05,15,10,15.10
2014,10,05,15,11,15.20
2014,10,05,15,12,15.20
2014,10,05,15,13,15.20
2014,10,05,15,14,15.20
2014,10,05,15,15,15.20
2014,10,05,15,16,15.10
2014,10,05,15,17,15.00
2014,10,05,15,18,15.00
2014,10,05,15,19,15.00
2014,10,05,15,20,15.00
2014,10,05,15,21,15.00
2014,10,05,15,22,15.10
2014,10,05,15,23,15.10
2014,10,05,15,24,15.10
2014,10,05,15,25,15.10
2014,10,05,15,26,15.10
2014,10,05,15,27,15.10
2014,10,05,15,28,15.20
2014,10,05,15,29,15.20
2014,10,05,15,30,15.20
2014,10,05,15,31,15.20
2014,10,05,15,32,15.20
2014,10,05,15,33,15.20
2014,10,05,15,34,15.20
2014,10,05,15,35,15.20
2014,10,05,15,36,15.30
2014,10,05,15,37,15.20
2014,10,05,15,38,15.20
2014,10,05,15,39,15.10
2014,10,05,15,40,15.10
2014,10,05,15,41,15.10
2014,10,05,15,42,15.10
2014,10,05,15,43,15.10
2014,10,05,15,44,15.10
2014,10,05,15,45,15.10
2014,10,05,15,46,15.20
2014,10,05,15,47,15.20
2014,10,05,15,48,15.30
2014,10,05,15,49,15.30
2014,10,05,15,50,15.40
2014,10,05,15,51,15.40
2014,10,05,15,52,15.40
2014,10,05,15,53,15.30
2014,10,05,15,54,15.30
2014,10,05,15,55,15.30
2014,10,05,15,56,15.30
2014,10,05,15,57,15.30
2014,10,05,15,58,15.30
2014,10,05,15,59,15.30
2014,10,05,16,00,15.30
2014,10,05,16,01,15.30
2014,10,05,16,02,15.30
2014,10,05,16,03,15.30
2014,10,05,16,04,15.40
2014,10,05,16,05,15.40
2014,10,05,16,06,15.40
2014,10,05,16,07,15.50
2014,10,05,16,08,15.50
2014,10,05,16,09,15.60
2014,10,05,16,10,15.60
2014,10,05,16,11,15.60
2014,10,05,16,12,15.60
2014,10,05,16,13,15.60
2014,10,05,16,14,15.60
2014,10,05,16,15,15.60
2014,10,05,16,16,15.60
2014,10,05,16,17,15.70
2014,10,05,16,18,15.80
2014,10,05,16,19,15.80
2014,10,05,16,20,15.80
2014,10,05,16,21,15.80
2014,10,05,16,22,15.80
2014,10,05,16,23,15.80
2014,10,05,16,24,15.80
2014,10,05,16,25,15.70
2014,10,05,16,26,15.70
2014,10,05,16,27,15.70
2014,10,05,16,28,15.70
2014,10,05,16,29,15.60
2014,10,05,16,30,15.60
2014,10,05,16,31,15.60
2014,10,05,16,32,15.70
2014,10,05,16,33,15.70
2014,10,05,16,34,15.70
2014,10,05,16,35,15.70
2014,10,05,16,36,15.70
2014,10,05,16,37,15.80
2014,10,05,16,38,15.80
2014,10,05,16,39,15.80
2014,10,05,16,40,15.80
2014,10,05,16,41,15.80
2014,10,05,16,42,15.80
2014,10,05,16,43,15.80
2014,10,05,16,44,15.90
2014,10,05,16,45,15.90
2014,10,05,16,46,16.00
2014,10,05,16,47,16.10
2014,10,05,16,48,16.10
2014,10,05,16,49,16.10
2014,10,05,16,50,16.10
2014,10,05,16,51,16.10
2014,10,05,16,52,16.10
2014,10,05,16,53,16.10
2014,10,05,16,54,16.10
2014,10,05,16,55,16.10
2014,10,05,16,56,16.20
2014,10,05,16,57,16.20
2014,10,05,16,58,16.20
2014,10,05,16,59,16.20
2014,10,05,17,00,16.20
2014,10,05,17,01,16.10
2014,10,05,17,02,16.10
2014,10,05,17,03,16.10
2014,10,05,17,04,16.10
2014,10,05,17,05,16.20
2014,10,05,17,06,16.20
2014,10,05,17,07,16.20
2014,10,05,17,08,16.20
2014,10,05,17,09,16.30
2014,10,05,17,10,16.30
2014,10,05,17,11,16.30
2014,10,05,17,12,16.30
2014,10,05,17,13,16.30
2014,10,05,17,14,16.40
2014,10,05,17,15,16.40
2014,10,05,17,16,16.40
2014,10,05,17,17,16.50
2014,10,05,17,18,16.60
2014,10,05,17,19,16.70